Location: Ferintosh
(52.7647°N, 112.9692°W)
Time: 17:53:20
(UTC+00:00)

A-11 Canister half - Pass Details

Date: 26 May 2024
Orbit: 1515 x 1685 km, 47.2° (Epoch: 12 June)

Event Time Altitude Azimuth Distance (km) Brightness Sun altitude
Rises 15:43:06 0° 285° (WNW) 4,680 11.0 36.9°
Reaches altitude 10° 15:47:11 10° 270° (W) 3,682 10.6 37.5°
Maximum altitude 15:53:14 20° 228° (SW) 2,967 10.4 38.4°
Drops below altitude 10° 15:59:19 10° 186° (S) 3,675 11.2 39.3°
Sets 16:03:24 0° 170° (S) 4,668 11.8 39.8°
